Home > Weather > Lansing > Past weeks

Flag for USA Past Weather in Lansing, Michigan, USA — Yesterday and Last 2 Weeks

Now
64 °F

Clear.


Feels Like: 64 °F
Forecast: 64 / 80 °F
Wind: No wind

Location: Capital City Airport

Current Time: Aug 27, 2016 at 2:47:44 AM

Latest Report: Aug 27, 2016 at 1:53 AM


Visibility: 10 mi

Pressure: 30.14 "Hg

Humidity: 84%

Dew Point: 59 °F

Location of LansingLocation

Past Weather in Lansing — Graph

°F

Lansing Temperature Yesterday

Maximum temperature yesterday: 82 °F (at 3:53 PM)
Minimum temperature yesterday: 62 °F (at 2:53 AM)
Average temperature yesterday: 71 °F

High & Low Weather Summary for the Past Weeks

 TemperatureHumidityPressure
High88 °F (Aug 12, 11:53 AM)94% (Aug 12, 4:53 PM)30.25 "Hg (Aug 12, 4:53 PM)
Low54 °F (Aug 22, 6:53 AM)42% (Aug 22, 1:53 PM)29.57 "Hg (Aug 20, 5:53 PM)
Average73 °F76%29.98 "Hg
* Reported Aug 12 12:53 AM — Aug 27 12:53 AM, Lansing, Weather by CustomWeather, © 2016

Note: Actual official high and low records may vary slightly from our data, if they occured in-between our weather recording intervals... More about our weather records

Advertising

Lansing Weather History for the Previous 24 Hours

Scroll right to see more
 ConditionsComfort  
Time TempWeatherWind HumidityBarometerVisibility
12:53 AM
Sat, Aug 27
66 °FClear.No wind81%30.14 "Hg10 mi
11:53 PM
Fri, Aug 26
65 °FClear.No wind87%30.15 "Hg10 mi
10:53 PM68 °FClear.No wind82%30.16 "Hg10 mi
9:53 PM68 °FClear.No wind84%30.15 "Hg10 mi
8:53 PM74 °FSunny.3 mph67%30.14 "Hg10 mi
7:53 PM78 °FSunny.3 mph54%30.12 "Hg10 mi
6:53 PM80 °FSunny.6 mph52%30.12 "Hg10 mi
5:53 PM81 °FSunny.8 mph47%30.11 "Hg10 mi
4:53 PM82 °FSunny.6 mph46%30.12 "Hg10 mi
3:53 PM82 °FSunny.12 mph46%30.12 "Hg10 mi
2:53 PM80 °FSunny.9 mph47%30.14 "Hg10 mi
1:53 PM80 °FSunny.8 mph47%30.14 "Hg10 mi
12:53 PM77 °FSunny.7 mph56%30.16 "Hg10 mi
11:53 AM76 °FSunny.5 mph54%30.16 "Hg10 mi
10:53 AM74 °FSunny.3 mph67%30.16 "Hg10 mi
9:53 AM71 °FSunny.6 mph76%30.15 "Hg10 mi
8:53 AM67 °FSunny.6 mph87%30.14 "Hg10 mi
7:53 AM64 °FClear.3 mph90%30.12 "Hg10 mi
6:53 AM62 °FClear.3 mph90%30.11 "Hg10 mi
5:53 AM62 °FClear.No wind90%30.09 "Hg10 mi
4:53 AM63 °FClear.5 mph87%30.09 "Hg10 mi
3:53 AM63 °FClear.No wind90%30.08 "Hg10 mi
2:53 AM62 °FClear.5 mph90%30.08 "Hg10 mi
Weather by CustomWeather, © 2016

See weather overviewHow to use our weather pages